{"data":{"norad_id":62748,"epoch":"2026-05-24T22:56:44.867040Z","epoch_age_seconds":75891,"freshness":"FRESH","line1":"1 62748U 25014P   26144.95607485  .00013636  00000+0  50392-3 0  9990","line2":"2 62748  42.9960  86.9342 0000704 236.8845 123.1939 15.27591972 74881","mean_motion":15.27591972,"eccentricity":7.04e-5,"inclination_deg":42.996,"raan_deg":86.9342,"arg_perigee_deg":236.8845,"mean_anomaly_deg":123.1939,"bstar":0.00050392,"rev_number":7488,"period_min":94.266009928992,"perigee_km":482.53022282143,"apogee_km":483.49627277632,"semimajor_km":6861.1502477989,"source":"CELESTRAK","updated_at":"2026-05-25T13:38:19.740874Z"}}